User: anonymous   Login
Location: Unspecified
(0.0000°N, 0.0000°E)
Time: 03:33:57
(UTC+01:00)
Language:

BREEZE-M DEB (TANK) - Orbit

View from above orbital plane
View from above orbital plane
View from above satellite
View from above satellite

Ground track
Ground track

The orbit data is extracted from the following two-line orbital elements,

1 33374U 08044B   14304.36888980  .00001883  00000-0  48682-3 0  7717
2 33374 049.4191 235.9898 5458440 229.8091 339.1494 04.84602120107339
Epoch (UTC): 31 October 2014 08:51:12
Eccentricity: 0.5458440
inclination: 49.4191°
perigee height: 321 km
apogee height: 16424 km
right ascension of ascending node: 235.9898°
argument of perigee: 229.8091°
revolutions per day: 4.84602120
mean anomaly at epoch: 339.1494°
orbit number at epoch: 10733

The dashed part of the orbit path shows where the satellite is in the earth's shadow,  

DLR